Regional Weather Roundup
Issued by NWS

Home | Current Version | Previous Version | Text Only | Print | Product List | Glossary Off
Versions: 1 2 3 4 5 6 7 8 9 10 11 12 13 14 15 16 17 18 19 20 21 22 23 24 25 26 27

000
ASUS45 KSLC 010110
RWRUT

UTAH REGIONAL WEATHER ROUNDUP
NATIONAL WEATHER SERVICE SALT LAKE CITY UT
700 PM MDT SAT APR 30 2016

UTZ001>011-023>025-010200-

NORTHERN UTAH

CITY           SKY/WX    TMP DP  RH WIND       PRES   REMARKS
BRIGHAM CITY   CLOUDY    57  28  32 SE12G17   30.00R
HILL AFB       CLOUDY    52  30  43 N10G30    29.99R
LOGAN          CLOUDY    53  36  52 E17G25    30.01R
OGDEN          CLOUDY    54  30  40 NE9       29.98S
PROVO AIRPORT  PTSUNNY   54  36  50 E7        29.92F
SALT LAKE CITY CLOUDY    59  27  29 VRB6      29.93R
VERNAL         CLOUDY    45  29  53 NE22G30   30.02R
WENDOVER       MOSUNNY   55  36  47 N17       29.99S
HEBER CITY     CLOUDY    46  36  66 W5        29.96S

$$

UTZ012>022-026-027-010200-

SOUTHERN/CENTRAL UTAH

CITY           SKY/WX    TMP DP  RH WIND       PRES   REMARKS
BLANDING       PTSUNNY   52  34  50 W6        29.93S
BRYCE CANYON   CLOUDY    43  35  73 NW6       29.92R
CEDAR CITY     LGT RAIN  44  39  82 CALM      29.87S
DELTA          MOSUNNY   55  32  41 N21G26    29.87S
HANKSVILLE     PTSUNNY   59  28  31 NE17G23   29.88S
MILFORD        PTSUNNY   52  39  61 N13       29.86S
MOAB/CYNLANDS  SUNNY     55  29  36 NE22      29.86R
PRICE          PTSUNNY   48  24  39 NE21G30   29.95R
ST GEORGE      CLOUDY    59  45  58 NE9       29.82R
KANAB          PTSUNNY   54  41  62 E12       29.90R

$$

REGIONAL REPORTS     COLORADO/ARIZONA

CITY           SKY/WX    TMP DP  RH WIND       PRES   REMARKS
CRAIG, CO      CLOUDY    45  23  42 E14       30.01R
GRAND JUNCTION CLOUDY    52  33  48 N10       29.89R
RIFLE          CLOUDY    50  32  50 CALM      29.92S
MONTROSE       MOSUNNY   53  27  36 NW15      29.90R
CORTEZ         CLOUDY    50  36  58 S8        29.87R
PAGE, AZ       CLOUDY    54  39  57 NE12      29.84F
GRAND CANYON   CLOUDY    39  35  86 NE13      29.87F WCI  31
KINGMAN        PTSUNNY   56  41  57 E10       29.77R
FLAGSTAFF      CLOUDY    40  36  86 E9G20     29.83S WCI  34

$$

REGIONAL REPORTS    NEVADA/IDAHO/WYOMING

CITY           SKY/WX    TMP DP  RH WIND       PRES   REMARKS
LAS VEGAS, NV  CLOUDY    57  51  80 S5        29.76F
ELY            PTSUNNY   45  36  70 N21       29.96R
ELKO           MOSUNNY   57  32  38 N15G24    30.00R
POCATELLO, ID  PTSUNNY   56  39  53 W6        30.03S
BURLEY         PTSUNNY   48  42  80 W8        30.04R
EVANSTON, WY   CLOUDY    37  28  70 E24G36    30.07S WCI  26
ROCK SPRINGS   CLOUDY    36  29  75 E25       30.13R WCI  24
KEMMERER         N/A     34  32  93 E18G25    30.12R FOG     WCI  23

$$




USA.gov is the U.S. government's official web portal to all federal, state and local government web resources and services.